Regional Weather Roundup
Issued by NWS

Home | Current Version | Previous Version | Graphics & Text | Print | Product List | Glossary On
Versions: 1 2 3 4 5 6 7 8 9 10 11 12 13 14 15 16 17 18 19 20 21 22 23 24 25 26 27 28 29 30 31 32 33 34 35 36 37 38 39 40 41 42 43 44 45 46 47 48 49 50
000
ASUS43 KTOP 300710
RWRKS

STATE WEATHER ROUNDUP
NATIONAL WEATHER SERVICE DODGE CITY KS
 FOR NATIONAL WEATHER SERVICE GOODLAND KS
200 AM CDT THU JUL 30 2015

NOTE:  "FAIR" INDICATES FEW OR NO CLOUDS BELOW 12,000 FEET WITH NO
SIGNIFICANT WEATHER AND/OR OBSTRUCTIONS TO VISIBILITY.

KSZ001>006-013>018-027>032-041>047-300800-
...NORTHWEST KANSAS...

CITY           SKY/WX    TMP DP  RH WIND       PRES   REMARKS
GOODLAND       PTCLDY    59  55  87 SE6       30.29S
HAYS           PTCLDY    70  55  60 E5        30.22S
HILL CITY      MOCLDY    64  60  87 NE5       30.25R
RUSSELL        PTCLDY    66  59  78 NE6       30.20R
$$

KSZ061>065-074>080-084>089-300800-
...SOUTHWEST KANSAS...

CITY           SKY/WX    TMP DP  RH WIND       PRES   REMARKS
DODGE CITY     MOCLDY    69  66  90 SE6       30.24S
ELKHART          N/A     68  62  81 E7          N/A
GARDEN CITY    CLOUDY    68  65  90 E6        30.25S
GREAT BEND     CLOUDY    72  66  83 SE6       30.20S
LIBERAL        MOCLDY    70  63  78 E8        30.24S
PRATT          MOCLDY    70  68  94 E5        30.21S
$$

KSZ066>073-081>083-090>101-300800-
...SOUTHEAST KANSAS...

CITY           SKY/WX    TMP DP  RH WIND       PRES   REMARKS
CHANUTE        CLOUDY    77  66  68 E6        30.16R
COFFEYVILLE    MOCLDY    77  66  68 NE7       30.13S
HUTCHINSON     CLEAR     71  67  87 E6        30.18S
MEDICINE LODGE   N/A     73  70  90 NE5       30.16F
PARSONS        MOCLDY    78  66  66 CALM      30.16S
WICHITA INTL   MOCLDY    75  69  81 E8        30.16S
WICHITA JABRA  PTCLDY    71  68  90 NE5       30.17S
WICHITA MCCONL CLEAR     74  68  79 E6        30.17R
WINFIELD       PTCLDY    76  68  76 E9        30.16S
$$

KSZ007>012-019>026-033>040-048>060-102>105-300800-
...NORTHEAST KANSAS...

CITY           SKY/WX    TMP DP  RH WIND       PRES   REMARKS
CONCORDIA      CLEAR     66  62  87 CALM      30.20S
EMPORIA        CLEAR     70  67  90 NE5       30.18S
LAWRENCE       CLEAR     66  63  90 CALM      30.18R
MANHATTAN      CLEAR     65  64  97 CALM      30.18S
OLATHE IND     CLEAR     69  67  93 CALM      30.19R
OLATHE EXE     CLEAR     71  66  84 NE5       30.17S
SALINA         MOCLDY    73  65  75 CALM      30.19R
TOPEKA BILLARD CLEAR     69  67  93 CALM      30.18S
TOPEKA FORBES  CLEAR     69  65  86 CALM      30.18S
$$


USA.gov is the U.S. government's official web portal to all federal, state and local government web resources and services.